sat.trackr.live / text

‹ back to catalog

STARLINK-37766

NORAD 69216 · 2026-115F

PAYLOAD ACTIVE UNKNOWN

§ Identity

Operator
Country
US
Launch date
2026-05-26
Launch site
AFWTR
Launch vehicle
Mass (kg)
RCS (m²)

Purposes: comms

External: N2YO · Heavens-Above · Gunter

§ Orbital elements

Epoch: 2026-09-20T00:22:45.076800Z

Period
93.91 min
Inclination
97.2836°
Eccentricity
0.0001785
Mean motion
15.33433890 rev/d
Perigee alt
464.4 km
Apogee alt
466.8 km
Semi-major
6,843.7 km
B*
7.8419e-5
RAAN
279.0781°
Arg perigee
97.8626°
Mean anomaly
262.2819°
Rev number
1,921

§ Raw data

STARLINK-377661 69216U 26115F   26263.01579950  .00002457  00000+0  78419-4 0  99942 69216  97.2836 279.0781 0001785  97.8626 262.2819 15.33433890 19216

JSON: /api/v1/satellites/69216 · /tle

For live sub-satellite position, see the globe view (requires WebGL).

§ Visibility from observer

Set your observer location to see the next 7 days of passes ≥ 10°. The values pass through the URL so the page stays shareable.

No JS? Fill the form by hand. The geolocation button needs JavaScript.